Weather History for KLCH - January, 2013

Change the Weather History Date:

Thursday, January 31, 2013

  Actual Average Record
Temperature  
Mean Temperature 48 °F 53 °F  
Max Temperature 62 °F 62 °F 80 °F (2002)
Min Temperature 34 °F 43 °F 19 °F (1949)
Degree Days  
Heating Degree Days 17 13  
Month to date heating degree days 327 423  
Since 1 July heating degree days 782 991  
Cooling Degree Days 0 0  
Month to date cooling degree days 24 10  
Year to date cooling degree days 24 10  
Moisture  
Dew Point 33 °F    
Average Humidity 56    
Maximum Humidity 92    
Minimum Humidity 20    
Precipitation  
Precipitation 0.00 in 0.15 in 2.55 in (2005)
Month to date precipitation 11.38 5.23  
Year to date precipitation 11.38 5.23  
Snow  
Snow 0.00 in 0.00 in 0.50 in (1951)
Month to date snowfall 0.0 T  
Since 1 July snowfall 0.0 T  
Snow Depth 0.00 in    
Sea Level Pressure  
Sea Level Pressure 30.30 in    
Wind  
Wind Speed 4 mph (SW)    
Max Wind Speed 15 mph    
Max Gust Speed 22 mph    
Visibility 10 miles    
Events      
T = Trace of Precipitation, MM = Missing Value Source: NWS Daily Summary

Daily Weather History Graph

Daily Weather History Graph

Search for Another Location

Airport or City:

Trip Planner

Search our weather history database for the weather conditions in past years. The results will help you decide how hot, cold, wet, or windy it might be!

Date:

Astronomy

Jan. 31, 2013 Rise Set
Actual Time 7:03 AM CST 5:49 PM CST
Civil Twilight 6:38 AM CST 6:14 PM CST
Nautical Twilight 6:09 AM CST 6:43 PM CST
Astronomical Twilight 5:41 AM CST 7:11 PM CST
Moon 10:25 PM CST (1/31) 9:27 AM CST (1/31)
Length of Visible Light 11h 35m
Length of Day
10h 45m
Waning Gibbous, 79% of the Moon is Illuminated
Jan 31
Waning Gibbous
Feb 3
Last Quarter
Feb 10
New
Feb 17
First Quarter
Feb 25
Full

Hourly Weather History & Observations

Time (CST) Temp. Dew Point Humidity Pressure Visibility Wind Dir Wind Speed Gust Speed Precip Events Conditions
12:53 AM 39.0 °F 35.1 °F 86% 30.27 in 10.0 mi Calm Calm - N/A   Clear
1:53 AM 37.0 °F 34.0 °F 89% 30.27 in 10.0 mi Calm Calm - N/A   Clear
2:53 AM 37.0 °F 34.0 °F 89% 30.25 in 10.0 mi Calm Calm - N/A   Clear
3:53 AM 36.0 °F 33.1 °F 89% 30.25 in 10.0 mi Calm Calm - N/A   Clear
4:53 AM 35.6 °F 33.8 °F 93% 30.22 in 10.0 mi Calm Calm - N/A   Clear
5:53 AM 35.1 °F 33.1 °F 92% 30.26 in 7.0 mi Calm Calm - N/A   Clear
6:53 AM 36.0 °F 33.1 °F 89% 30.28 in 10.0 mi Calm Calm - N/A   Clear
7:53 AM 39.0 °F 36.0 °F 89% 30.30 in 10.0 mi Calm Calm - N/A   Clear
8:53 AM 50.0 °F 39.9 °F 68% 30.33 in 10.0 mi Calm Calm - N/A   Clear
9:53 AM 55.0 °F 34.0 °F 45% 30.35 in 10.0 mi Variable 4.6 mph - N/A   Clear
10:53 AM 57.9 °F 28.9 °F 33% 30.35 in 10.0 mi SW 9.2 mph - N/A   Unknown
11:53 AM 60.1 °F 25.0 °F 26% 30.34 in 10.0 mi Variable 5.8 mph - N/A   Clear
12:53 PM 61.0 °F 19.9 °F 21% 30.31 in 10.0 mi Variable 5.8 mph - N/A   Unknown
1:53 PM 61.0 °F 30.0 °F 31% 30.30 in 10.0 mi SSW 12.7 mph 19.6 mph N/A   Clear
2:53 PM 59.0 °F 30.9 °F 35% 30.29 in 10.0 mi SSW 12.7 mph 17.3 mph N/A   Clear
3:53 PM 60.1 °F 30.0 °F 32% 30.29 in 10.0 mi SSW 11.5 mph 18.4 mph N/A   Clear
4:53 PM 59.0 °F 28.9 °F 32% 30.30 in 10.0 mi SSW 12.7 mph - N/A   Clear
5:53 PM 55.0 °F 30.9 °F 40% 30.29 in 10.0 mi SSW 6.9 mph - N/A   Clear
6:53 PM 53.1 °F 33.1 °F 47% 30.30 in 10.0 mi SSW 3.5 mph - N/A   Clear
7:53 PM 50.0 °F 33.1 °F 52% 30.31 in 10.0 mi Calm Calm - N/A   Clear
8:53 PM 48.9 °F 37.0 °F 64% 30.34 in 10.0 mi SW 3.5 mph - N/A   Clear
9:53 PM 52.0 °F 39.0 °F 61% 30.35 in 10.0 mi SW 3.5 mph - N/A   Clear
10:53 PM 48.2 °F 39.2 °F 71% 30.33 in 10.0 mi Calm Calm - N/A   Clear
11:53 PM 46.0 °F 41.0 °F 83% 30.36 in 10.0 mi Calm Calm - N/A   Clear